THOR ABLESTAR DEB, 121

Orbit data source: Space-Track

THOR ABLESTAR DEB, 121 is space debris in LEO originally from a launch on Thu, 29 Jun 1961 UTC launched from the Air Force Eastern Test Range (AFETR). Debris objects in space refer to the collection of defunct objects orbiting the Earth. Examples of debris include non-operational satellites, rocket bodies, and fragments generated from explosions, collisions, or faulty payload assembly.

Loading next visibility...
Identifier
121, 1961-015F
Orbit
LEO
Country
Flag of USUS
Related business
Manufacturer
Unknown
Mission
Spacecraft
Bus & Motor
Unknown
Mass
Unknown
Launch date (UTC)
1961-06-29 (64 years ago)
Launch vehicle
Unknown
Launch site
Air Force Eastern Test Range (AFETR)
Object type
Payload
Rocket body
Debris
Shape & HBR
Unknown shape, 0.4 m
Radar Cross Section
Medium (>0.1 m² and <1 m²)

Expand to show TLE details & history
Last TLE update: 16 hours ago

TLE from 16 hours ago
0 THOR ABLESTAR DEB
1   121U 61015F   25296.38522503  .00000044  00000-0  80120-4 0  9992
2   121  66.7463 270.1355 0092351 175.0609 185.1408 14.00175314293219
Epoch: 2025-10-23T09:14Z
TLE epoch observation values (Epoch: 2025-10-23T09:14:43.442Z)
Latitude
-0.00003°
Longitude
99.40924°
Altitude
962.163 km
Speed
7.337 km/s
True Right ascension
18h 00m 32s
True Declination
0° 00' 00"
Sunlit
Object was in daylight at epoch
Visualization orbit readout
Latitude
Unknown
Longitude
Unknown
Altitude
Unknown
Speed
Unknown
Apparent Right ascension
Unknown
Apparent Declination
Unknown
Sunlit
N/A
Visualization observer readout
Local Sidereal Time
20:03:08
Azimuth
Unknown
Elevation
Unknown
Doppler factor
Unknown
Orbital elements
Apogee altitude
958.717 km
Perigee altitude
824.444 km
Semi-major axis
7,269.717 km
Eccentricity
0.00924
Inclination
66.7463°
RAAN
270.1355°
Arg. of periapsis
175.0609°
True anomaly
185.04705°
Mean anomaly
185.1408°
Eccentric anomaly
185.09382°
Mean motion
3.5016 °/min
Orbital period
102.81 mins
BSTAR
0.00008012

Documentation

Showing up to 5 results
|